owner,sensor,date,latitude,longitude,vertical_datum,mass_concentration_of_oxygen_in_sea_water,qcFlag 
LUMCON,ioos:station:LUMCON:wisl1:1,2019-03-01T00:30:00Z,29.1144,-90.1840,2.569,7.32,1111122 
LUMCON,ioos:station:LUMCON:wisl1:1,2019-03-01T00:45:00Z,29.1144,-90.1840,2.571,7.25,1111122 
LUMCON,ioos:station:LUMCON:wisl1:1,2019-03-01T01:00:00Z,29.1144,-90.1840,2.563,7.27,1111122 
LUMCON,ioos:station:LUMCON:wisl1:1,2019-03-01T01:15:00Z,29.1144,-90.1840,2.564,7.24,1111122 
LUMCON,ioos:station:LUMCON:wisl1:1,2019-03-01T01:30:00Z,29.1144,-90.1840,2.553,7.2,1111122 
LUMCON,ioos:station:LUMCON:wisl1:1,2019-03-01T01:45:00Z,29.1144,-90.1840,2.559,7.23,1111122 
LUMCON,ioos:station:LUMCON:wisl1:1,2019-03-01T02:00:00Z,29.1144,-90.1840,2.55,7.22,1111122 
LUMCON,ioos:station:LUMCON:wisl1:1,2019-03-01T02:15:00Z,29.1144,-90.1840,2.537,7.22,1111122 
LUMCON,ioos:station:LUMCON:wisl1:1,2019-03-01T02:30:00Z,29.1144,-90.1840,2.539,7.24,1111122 
LUMCON,ioos:station:LUMCON:wisl1:1,2019-03-01T02:45:00Z,29.1144,-90.1840,2.525,7.25,1111122 
LUMCON,ioos:station:LUMCON:wisl1:1,2019-03-01T03:00:00Z,29.1144,-90.1840,2.508,7.22,1111122 
LUMCON,ioos:station:LUMCON:wisl1:1,2019-03-01T03:15:00Z,29.1144,-90.1840,2.501,7.19,1111122 
LUMCON,ioos:station:LUMCON:wisl1:1,2019-03-01T03:30:00Z,29.1144,-90.1840,2.495,7.16,1111122 
LUMCON,ioos:station:LUMCON:wisl1:1,2019-03-01T03:45:00Z,29.1144,-90.1840,2.476,7.1,1111122 
LUMCON,ioos:station:LUMCON:wisl1:1,2019-03-01T04:00:00Z,29.1144,-90.1840,2.467,7.11,1111122 
LUMCON,ioos:station:LUMCON:wisl1:1,2019-03-01T04:15:00Z,29.1144,-90.1840,2.457,7.15,1111122 
LUMCON,ioos:station:LUMCON:wisl1:1,2019-03-01T04:30:00Z,29.1144,-90.1840,2.454,7.09,1111122 
LUMCON,ioos:station:LUMCON:wisl1:1,2019-03-01T04:45:00Z,29.1144,-90.1840,2.44,7.11,1111122 
LUMCON,ioos:station:LUMCON:wisl1:1,2019-03-01T05:00:00Z,29.1144,-90.1840,2.421,7.11,1111122 
LUMCON,ioos:station:LUMCON:wisl1:1,2019-03-01T05:15:00Z,29.1144,-90.1840,2.401,7.12,1111122 
LUMCON,ioos:station:LUMCON:wisl1:1,2019-03-01T05:30:00Z,29.1144,-90.1840,2.394,7.09,1111122 
LUMCON,ioos:station:LUMCON:wisl1:1,2019-03-01T05:45:00Z,29.1144,-90.1840,2.369,7.18,1111122 
LUMCON,ioos:station:LUMCON:wisl1:1,2019-03-01T06:00:00Z,29.1144,-90.1840,2.354,7.17,1111122 
LUMCON,ioos:station:LUMCON:wisl1:1,2019-03-01T06:15:00Z,29.1144,-90.1840,2.33,7.17,1111122 
LUMCON,ioos:station:LUMCON:wisl1:1,2019-03-01T06:30:00Z,29.1144,-90.1840,2.311,7.13,1111122 
LUMCON,ioos:station:LUMCON:wisl1:1,2019-03-01T06:45:00Z,29.1144,-90.1840,2.292,7.13,1111122 
LUMCON,ioos:station:LUMCON:wisl1:1,2019-03-01T07:00:00Z,29.1144,-90.1840,2.277,7.08,1111122 
LUMCON,ioos:station:LUMCON:wisl1:1,2019-03-01T07:15:00Z,29.1144,-90.1840,2.271,7.04,1111122 
LUMCON,ioos:station:LUMCON:wisl1:1,2019-03-01T07:30:00Z,29.1144,-90.1840,2.273,6.98,1111122 
LUMCON,ioos:station:LUMCON:wisl1:1,2019-03-01T07:45:00Z,29.1144,-90.1840,2.278,6.95,1111122 
LUMCON,ioos:station:LUMCON:wisl1:1,2019-03-01T08:00:00Z,29.1144,-90.1840,2.261,6.92,1111122 
LUMCON,ioos:station:LUMCON:wisl1:1,2019-03-01T08:15:00Z,29.1144,-90.1840,2.249,6.92,1111122 
LUMCON,ioos:station:LUMCON:wisl1:1,2019-03-01T08:30:00Z,29.1144,-90.1840,2.23,6.9,1111122 
LUMCON,ioos:station:LUMCON:wisl1:1,2019-03-01T08:45:00Z,29.1144,-90.1840,2.222,6.88,1111122 
LUMCON,ioos:station:LUMCON:wisl1:1,2019-03-01T09:00:00Z,29.1144,-90.1840,2.254,6.89,1111122 
LUMCON,ioos:station:LUMCON:wisl1:1,2019-03-01T09:15:00Z,29.1144,-90.1840,2.204,6.91,1111122 
LUMCON,ioos:station:LUMCON:wisl1:1,2019-03-01T09:30:00Z,29.1144,-90.1840,2.226,6.83,1111122 
LUMCON,ioos:station:LUMCON:wisl1:1,2019-03-01T09:45:00Z,29.1144,-90.1840,2.22,6.77,1111122 
LUMCON,ioos:station:LUMCON:wisl1:1,2019-03-01T10:00:00Z,29.1144,-90.1840,2.212,6.91,1111122 
LUMCON,ioos:station:LUMCON:wisl1:1,2019-03-01T10:15:00Z,29.1144,-90.1840,2.18,6.9,1111122 
LUMCON,ioos:station:LUMCON:wisl1:1,2019-03-01T10:30:00Z,29.1144,-90.1840,2.217,6.91,1111122 
LUMCON,ioos:station:LUMCON:wisl1:1,2019-03-01T10:45:00Z,29.1144,-90.1840,2.188,6.92,1111122 
LUMCON,ioos:station:LUMCON:wisl1:1,2019-03-01T11:00:00Z,29.1144,-90.1840,2.198,6.93,1111122 
LUMCON,ioos:station:LUMCON:wisl1:1,2019-03-01T11:15:00Z,29.1144,-90.1840,2.201,6.89,1111122 
LUMCON,ioos:station:LUMCON:wisl1:1,2019-03-01T11:30:00Z,29.1144,-90.1840,2.219,6.83,1111122 
LUMCON,ioos:station:LUMCON:wisl1:1,2019-03-01T11:45:00Z,29.1144,-90.1840,2.184,6.84,1111122 
LUMCON,ioos:station:LUMCON:wisl1:1,2019-03-01T12:00:00Z,29.1144,-90.1840,2.22,6.81,1111122 
LUMCON,ioos:station:LUMCON:wisl1:1,2019-03-01T12:15:00Z,29.1144,-90.1840,2.235,6.85,1111122 
LUMCON,ioos:station:LUMCON:wisl1:1,2019-03-04T17:30:00Z,29.1144,-90.1840,2.43,8.37,1111122 
LUMCON,ioos:station:LUMCON:wisl1:1,2019-03-04T17:45:00Z,29.1144,-90.1840,2.44,8.28,1111122 
LUMCON,ioos:station:LUMCON:wisl1:1,2019-03-04T18:00:00Z,29.1144,-90.1840,2.452,8.29,1111122 
LUMCON,ioos:station:LUMCON:wisl1:1,2019-03-04T18:15:00Z,29.1144,-90.1840,2.451,8.38,1111122 
LUMCON,ioos:station:LUMCON:wisl1:1,2019-03-04T18:30:00Z,29.1144,-90.1840,2.449,8.1,1111122 
LUMCON,ioos:station:LUMCON:wisl1:1,2019-03-04T18:45:00Z,29.1144,-90.1840,2.456,8.02,1111122 
LUMCON,ioos:station:LUMCON:wisl1:1,2019-03-04T19:00:00Z,29.1144,-90.1840,2.451,8.01,1111122 
LUMCON,ioos:station:LUMCON:wisl1:1,2019-03-04T19:15:00Z,29.1144,-90.1840,2.468,8.08,1111122 
LUMCON,ioos:station:LUMCON:wisl1:1,2019-03-04T19:30:00Z,29.1144,-90.1840,2.462,8.05,1111122 
LUMCON,ioos:station:LUMCON:wisl1:1,2019-03-04T19:45:00Z,29.1144,-90.1840,2.46,8.12,1111122 
LUMCON,ioos:station:LUMCON:wisl1:1,2019-03-04T20:00:00Z,29.1144,-90.1840,2.454,8.09,1111122 
LUMCON,ioos:station:LUMCON:wisl1:1,2019-03-04T20:15:00Z,29.1144,-90.1840,2.468,8.06,1111122 
LUMCON,ioos:station:LUMCON:wisl1:1,2019-03-04T20:30:00Z,29.1144,-90.1840,2.462,8.0,1111122 
LUMCON,ioos:station:LUMCON:wisl1:1,2019-03-04T20:45:00Z,29.1144,-90.1840,2.456,8.11,1111122 
LUMCON,ioos:station:LUMCON:wisl1:1,2019-03-04T21:00:00Z,29.1144,-90.1840,2.469,8.09,1111122 
LUMCON,ioos:station:LUMCON:wisl1:1,2019-03-04T21:15:00Z,29.1144,-90.1840,2.475,8.11,1111122 
LUMCON,ioos:station:LUMCON:wisl1:1,2019-03-04T21:30:00Z,29.1144,-90.1840,2.497,8.24,1111122 
LUMCON,ioos:station:LUMCON:wisl1:1,2019-03-04T21:45:00Z,29.1144,-90.1840,2.494,8.06,1111122 
LUMCON,ioos:station:LUMCON:wisl1:1,2019-03-04T22:00:00Z,29.1144,-90.1840,2.496,8.12,1111122 
LUMCON,ioos:station:LUMCON:wisl1:1,2019-03-04T22:15:00Z,29.1144,-90.1840,2.518,8.12,1111122 
LUMCON,ioos:station:LUMCON:wisl1:1,2019-03-04T22:30:00Z,29.1144,-90.1840,2.519,8.15,1111122 
LUMCON,ioos:station:LUMCON:wisl1:1,2019-03-04T22:45:00Z,29.1144,-90.1840,2.53,8.09,1111122 
LUMCON,ioos:station:LUMCON:wisl1:1,2019-03-04T23:00:00Z,29.1144,-90.1840,2.544,8.08,1111122 
LUMCON,ioos:station:LUMCON:wisl1:1,2019-03-04T23:15:00Z,29.1144,-90.1840,2.55,8.16,1111122 
LUMCON,ioos:station:LUMCON:wisl1:1,2019-03-04T23:30:00Z,29.1144,-90.1840,2.554,8.09,1111122 
LUMCON,ioos:station:LUMCON:wisl1:1,2019-03-04T23:45:00Z,29.1144,-90.1840,2.558,8.14,1111122 
LUMCON,ioos:station:LUMCON:wisl1:1,2019-03-05T00:00:00Z,29.1144,-90.1840,2.573,8.23,1111122 
LUMCON,ioos:station:LUMCON:wisl1:1,2019-03-05T00:15:00Z,29.1144,-90.1840,2.578,8.19,1111122 
LUMCON,ioos:station:LUMCON:wisl1:1,2019-03-05T00:30:00Z,29.1144,-90.1840,2.577,8.26,1111122 
LUMCON,ioos:station:LUMCON:wisl1:1,2019-03-05T00:45:00Z,29.1144,-90.1840,2.604,8.26,1111122 
LUMCON,ioos:station:LUMCON:wisl1:1,2019-03-05T01:00:00Z,29.1144,-90.1840,2.595,8.2,1111122 
LUMCON,ioos:station:LUMCON:wisl1:1,2019-03-05T01:15:00Z,29.1144,-90.1840,2.598,8.22,1111122 
LUMCON,ioos:station:LUMCON:wisl1:1,2019-03-05T01:30:00Z,29.1144,-90.1840,2.604,8.32,1111122 
LUMCON,ioos:station:LUMCON:wisl1:1,2019-03-05T01:45:00Z,29.1144,-90.1840,2.608,8.31,1111122 
LUMCON,ioos:station:LUMCON:wisl1:1,2019-03-05T02:00:00Z,29.1144,-90.1840,2.61,8.34,1111122 
LUMCON,ioos:station:LUMCON:wisl1:1,2019-03-05T02:15:00Z,29.1144,-90.1840,2.619,8.37,1111122 
LUMCON,ioos:station:LUMCON:wisl1:1,2019-03-05T02:30:00Z,29.1144,-90.1840,2.611,8.35,1111122 
LUMCON,ioos:station:LUMCON:wisl1:1,2019-03-05T02:45:00Z,29.1144,-90.1840,2.612,8.37,1111122 
LUMCON,ioos:station:LUMCON:wisl1:1,2019-03-05T03:00:00Z,29.1144,-90.1840,2.627,8.35,1111122 
LUMCON,ioos:station:LUMCON:wisl1:1,2019-03-05T03:15:00Z,29.1144,-90.1840,2.637,8.41,1111122 
LUMCON,ioos:station:LUMCON:wisl1:1,2019-03-05T03:30:00Z,29.1144,-90.1840,2.649,8.31,1111122 
LUMCON,ioos:station:LUMCON:wisl1:1,2019-03-05T03:45:00Z,29.1144,-90.1840,2.638,8.31,1111122 
LUMCON,ioos:station:LUMCON:wisl1:1,2019-03-05T04:00:00Z,29.1144,-90.1840,2.637,8.28,1111122 
LUMCON,ioos:station:LUMCON:wisl1:1,2019-03-05T04:15:00Z,29.1144,-90.1840,2.642,8.21,1111122 
LUMCON,ioos:station:LUMCON:wisl1:1,2019-03-05T04:30:00Z,29.1144,-90.1840,2.65,8.31,1111122 
LUMCON,ioos:station:LUMCON:wisl1:1,2019-03-05T04:45:00Z,29.1144,-90.1840,2.624,8.32,1111122 
LUMCON,ioos:station:LUMCON:wisl1:1,2019-03-05T05:00:00Z,29.1144,-90.1840,2.614,7.98,1111122 
LUMCON,ioos:station:LUMCON:wisl1:1,2019-03-05T05:15:00Z,29.1144,-90.1840,2.605,8.35,1111122 
LUMCON,ioos:station:LUMCON:wisl1:1,2019-03-05T05:30:00Z,29.1144,-90.1840,2.61,8.2,1111122 
LUMCON,ioos:station:LUMCON:wisl1:1,2019-03-05T05:45:00Z,29.1144,-90.1840,2.602,8.31,1111122 
LUMCON,ioos:station:LUMCON:wisl1:1,2019-03-05T06:00:00Z,29.1144,-90.1840,2.6,8.35,1111122 
LUMCON,ioos:station:LUMCON:wisl1:1,2019-03-05T06:15:00Z,29.1144,-90.1840,2.586,8.35,1111122 
LUMCON,ioos:station:LUMCON:wisl1:1,2019-03-05T06:30:00Z,29.1144,-90.1840,2.594,8.36,1111122 
LUMCON,ioos:station:LUMCON:wisl1:1,2019-03-05T06:45:00Z,29.1144,-90.1840,2.591,8.41,1111122 
LUMCON,ioos:station:LUMCON:wisl1:1,2019-03-05T07:00:00Z,29.1144,-90.1840,2.558,8.34,1111122 
LUMCON,ioos:station:LUMCON:wisl1:1,2019-03-05T07:15:00Z,29.1144,-90.1840,2.549,8.33,1111122 
LUMCON,ioos:station:LUMCON:wisl1:1,2019-03-05T07:30:00Z,29.1144,-90.1840,2.542,8.38,1111122 
LUMCON,ioos:station:LUMCON:wisl1:1,2019-03-05T07:45:00Z,29.1144,-90.1840,2.541,8.51,1111122 
LUMCON,ioos:station:LUMCON:wisl1:1,2019-03-05T08:00:00Z,29.1144,-90.1840,2.54,8.56,1111122 
LUMCON,ioos:station:LUMCON:wisl1:1,2019-03-05T08:15:00Z,29.1144,-90.1840,2.532,8.55,1111122 
LUMCON,ioos:station:LUMCON:wisl1:1,2019-03-05T08:30:00Z,29.1144,-90.1840,2.528,8.53,1111122 
LUMCON,ioos:station:LUMCON:wisl1:1,2019-03-05T08:45:00Z,29.1144,-90.1840,2.522,8.64,1111122 
LUMCON,ioos:station:LUMCON:wisl1:1,2019-03-05T09:00:00Z,29.1144,-90.1840,2.502,8.61,1111122 
LUMCON,ioos:station:LUMCON:wisl1:1,2019-03-05T09:15:00Z,29.1144,-90.1840,2.501,8.67,1111122 
LUMCON,ioos:station:LUMCON:wisl1:1,2019-03-05T09:30:00Z,29.1144,-90.1840,2.49,8.69,1111122 
LUMCON,ioos:station:LUMCON:wisl1:1,2019-03-05T09:45:00Z,29.1144,-90.1840,2.479,8.7,1111122 
LUMCON,ioos:station:LUMCON:wisl1:1,2019-03-05T10:00:00Z,29.1144,-90.1840,2.472,8.71,1111122 
LUMCON,ioos:station:LUMCON:wisl1:1,2019-03-05T10:15:00Z,29.1144,-90.1840,2.474,8.7,1111122 
LUMCON,ioos:station:LUMCON:wisl1:1,2019-03-05T10:30:00Z,29.1144,-90.1840,2.464,8.77,1111122 
LUMCON,ioos:station:LUMCON:wisl1:1,2019-03-05T10:45:00Z,29.1144,-90.1840,2.459,8.78,1111122 
LUMCON,ioos:station:LUMCON:wisl1:1,2019-03-05T11:00:00Z,29.1144,-90.1840,2.457,8.79,1111122 
LUMCON,ioos:station:LUMCON:wisl1:1,2019-03-05T11:15:00Z,29.1144,-90.1840,2.442,8.86,1111122 
LUMCON,ioos:station:LUMCON:wisl1:1,2019-03-05T11:30:00Z,29.1144,-90.1840,2.458,8.86,1111122 
LUMCON,ioos:station:LUMCON:wisl1:1,2019-03-05T11:45:00Z,29.1144,-90.1840,2.449,8.95,1111122 
LUMCON,ioos:station:LUMCON:wisl1:1,2019-03-05T12:00:00Z,29.1144,-90.1840,2.456,8.98,1111122 
LUMCON,ioos:station:LUMCON:wisl1:1,2019-03-05T12:15:00Z,29.1144,-90.1840,2.446,9.0,1111122 
LUMCON,ioos:station:LUMCON:wisl1:1,2019-03-05T12:30:00Z,29.1144,-90.1840,2.436,9.02,1111122 
LUMCON,ioos:station:LUMCON:wisl1:1,2019-03-05T12:45:00Z,29.1144,-90.1840,2.443,9.05,1111122 
LUMCON,ioos:station:LUMCON:wisl1:1,2019-03-05T13:00:00Z,29.1144,-90.1840,2.458,9.1,1111122 
LUMCON,ioos:station:LUMCON:wisl1:1,2019-03-05T13:15:00Z,29.1144,-90.1840,2.468,9.17,1111122 
LUMCON,ioos:station:LUMCON:wisl1:1,2019-03-05T13:30:00Z,29.1144,-90.1840,2.485,9.2,1111122 
LUMCON,ioos:station:LUMCON:wisl1:1,2019-03-05T13:45:00Z,29.1144,-90.1840,2.493,9.21,1111122 
LUMCON,ioos:station:LUMCON:wisl1:1,2019-03-05T14:00:00Z,29.1144,-90.1840,2.499,9.24,1111122 
LUMCON,ioos:station:LUMCON:wisl1:1,2019-03-05T14:15:00Z,29.1144,-90.1840,2.511,9.27,1111122 
LUMCON,ioos:station:LUMCON:wisl1:1,2019-03-05T14:30:00Z,29.1144,-90.1840,2.498,9.28,1111122 
LUMCON,ioos:station:LUMCON:wisl1:1,2019-03-05T14:45:00Z,29.1144,-90.1840,2.523,9.33,1111122 
LUMCON,ioos:station:LUMCON:wisl1:1,2019-03-05T15:00:00Z,29.1144,-90.1840,2.527,9.36,1111122 
LUMCON,ioos:station:LUMCON:wisl1:1,2019-03-05T15:15:00Z,29.1144,-90.1840,2.516,9.39,1111122 
LUMCON,ioos:station:LUMCON:wisl1:1,2019-03-05T15:30:00Z,29.1144,-90.1840,2.535,9.45,1111122 
LUMCON,ioos:station:LUMCON:wisl1:1,2019-03-05T15:45:00Z,29.1144,-90.1840,2.537,9.5,1111122 
LUMCON,ioos:station:LUMCON:wisl1:1,2019-03-05T16:00:00Z,29.1144,-90.1840,2.536,9.47,1111122 
LUMCON,ioos:station:LUMCON:wisl1:1,2019-03-05T16:15:00Z,29.1144,-90.1840,2.548,9.45,1111122 
LUMCON,ioos:station:LUMCON:wisl1:1,2019-03-05T16:30:00Z,29.1144,-90.1840,2.542,9.54,1111122 
LUMCON,ioos:station:LUMCON:wisl1:1,2019-03-05T16:45:00Z,29.1144,-90.1840,2.552,9.52,1111122 
LUMCON,ioos:station:LUMCON:wisl1:1,2019-03-05T17:00:00Z,29.1144,-90.1840,2.555,9.03,1111122 
LUMCON,ioos:station:LUMCON:wisl1:1,2019-03-05T17:15:00Z,29.1144,-90.1840,2.577,9.66,1111122 
LUMCON,ioos:station:LUMCON:wisl1:1,2019-03-05T17:30:00Z,29.1144,-90.1840,2.569,9.8,1111122 
LUMCON,ioos:station:LUMCON:wisl1:1,2019-03-05T17:45:00Z,29.1144,-90.1840,2.587,9.86,1111122 
LUMCON,ioos:station:LUMCON:wisl1:1,2019-03-05T18:00:00Z,29.1144,-90.1840,2.585,9.92,1111122 
LUMCON,ioos:station:LUMCON:wisl1:1,2019-03-05T18:15:00Z,29.1144,-90.1840,2.585,9.85,1111122 
LUMCON,ioos:station:LUMCON:wisl1:1,2019-03-05T18:30:00Z,29.1144,-90.1840,2.586,9.81,1111122 
LUMCON,ioos:station:LUMCON:wisl1:1,2019-03-05T18:45:00Z,29.1144,-90.1840,2.598,9.69,1111122 
LUMCON,ioos:station:LUMCON:wisl1:1,2019-03-05T19:00:00Z,29.1144,-90.1840,2.603,9.49,1111122 
LUMCON,ioos:station:LUMCON:wisl1:1,2019-03-05T19:15:00Z,29.1144,-90.1840,2.608,9.26,1111122 
LUMCON,ioos:station:LUMCON:wisl1:1,2019-03-05T19:30:00Z,29.1144,-90.1840,2.613,9.22,1111122 
LUMCON,ioos:station:LUMCON:wisl1:1,2019-03-05T19:45:00Z,29.1144,-90.1840,2.625,9.19,1111122 
LUMCON,ioos:station:LUMCON:wisl1:1,2019-03-05T20:00:00Z,29.1144,-90.1840,2.623,9.09,1111122 
LUMCON,ioos:station:LUMCON:wisl1:1,2019-03-05T20:15:00Z,29.1144,-90.1840,2.624,8.91,1111122 
LUMCON,ioos:station:LUMCON:wisl1:1,2019-03-05T20:30:00Z,29.1144,-90.1840,2.611,8.71,1111122 
LUMCON,ioos:station:LUMCON:wisl1:1,2019-03-05T20:45:00Z,29.1144,-90.1840,2.611,8.75,1111122 
LUMCON,ioos:station:LUMCON:wisl1:1,2019-03-05T21:00:00Z,29.1144,-90.1840,2.606,8.83,1111122 
LUMCON,ioos:station:LUMCON:wisl1:1,2019-03-05T21:15:00Z,29.1144,-90.1840,2.598,8.81,1111122 
LUMCON,ioos:station:LUMCON:wisl1:1,2019-03-05T21:30:00Z,29.1144,-90.1840,2.596,8.83,1111122 
LUMCON,ioos:station:LUMCON:wisl1:1,2019-03-05T21:45:00Z,29.1144,-90.1840,2.594,8.95,1111122 
LUMCON,ioos:station:LUMCON:wisl1:1,2019-03-05T22:00:00Z,29.1144,-90.1840,2.583,8.8,1111122 
LUMCON,ioos:station:LUMCON:wisl1:1,2019-03-05T22:15:00Z,29.1144,-90.1840,2.592,9.26,1111122 
LUMCON,ioos:station:LUMCON:wisl1:1,2019-03-05T22:30:00Z,29.1144,-90.1840,2.588,9.16,1111122 
LUMCON,ioos:station:LUMCON:wisl1:1,2019-03-05T22:45:00Z,29.1144,-90.1840,2.574,8.77,1111122 
LUMCON,ioos:station:LUMCON:wisl1:1,2019-03-05T23:00:00Z,29.1144,-90.1840,2.578,9.26,1111122 
LUMCON,ioos:station:LUMCON:wisl1:1,2019-03-05T23:15:00Z,29.1144,-90.1840,2.588,9.65,1111122 
LUMCON,ioos:station:LUMCON:wisl1:1,2019-03-05T23:30:00Z,29.1144,-90.1840,2.599,9.43,1111122 
LUMCON,ioos:station:LUMCON:wisl1:1,2019-03-05T23:45:00Z,29.1144,-90.1840,2.591,8.91,1111122 
LUMCON,ioos:station:LUMCON:wisl1:1,2019-03-06T00:00:00Z,29.1144,-90.1840,2.585,8.87,1111122 
LUMCON,ioos:station:LUMCON:wisl1:1,2019-03-06T00:15:00Z,29.1144,-90.1840,2.602,9.14,1111122 
LUMCON,ioos:station:LUMCON:wisl1:1,2019-03-06T00:30:00Z,29.1144,-90.1840,2.61,9.11,1111122 
LUMCON,ioos:station:LUMCON:wisl1:1,2019-03-06T00:45:00Z,29.1144,-90.1840,2.607,8.68,1111122 
LUMCON,ioos:station:LUMCON:wisl1:1,2019-03-06T01:00:00Z,29.1144,-90.1840,2.615,8.64,1111122 
LUMCON,ioos:station:LUMCON:wisl1:1,2019-03-06T01:15:00Z,29.1144,-90.1840,2.612,8.64,1111122 
LUMCON,ioos:station:LUMCON:wisl1:1,2019-03-06T01:30:00Z,29.1144,-90.1840,2.614,8.79,1111122 
LUMCON,ioos:station:LUMCON:wisl1:1,2019-03-06T01:45:00Z,29.1144,-90.1840,2.626,9.17,1111122 
LUMCON,ioos:station:LUMCON:wisl1:1,2019-03-06T02:00:00Z,29.1144,-90.1840,2.644,9.09,1111122 
LUMCON,ioos:station:LUMCON:wisl1:1,2019-03-06T02:15:00Z,29.1144,-90.1840,2.641,8.96,1111122 
LUMCON,ioos:station:LUMCON:wisl1:1,2019-03-06T02:30:00Z,29.1144,-90.1840,2.64,8.88,1111122 
LUMCON,ioos:station:LUMCON:wisl1:1,2019-03-06T02:45:00Z,29.1144,-90.1840,2.65,9.3,1111122 
LUMCON,ioos:station:LUMCON:wisl1:1,2019-03-06T03:00:00Z,29.1144,-90.1840,2.658,8.89,1111122 
LUMCON,ioos:station:LUMCON:wisl1:1,2019-03-06T03:15:00Z,29.1144,-90.1840,2.667,9.06,1111122 
LUMCON,ioos:station:LUMCON:wisl1:1,2019-03-06T03:30:00Z,29.1144,-90.1840,2.671,9.09,1111122 
LUMCON,ioos:station:LUMCON:wisl1:1,2019-03-06T03:45:00Z,29.1144,-90.1840,2.664,8.72,1111122 
LUMCON,ioos:station:LUMCON:wisl1:1,2019-03-06T04:00:00Z,29.1144,-90.1840,2.666,8.74,1111122 
LUMCON,ioos:station:LUMCON:wisl1:1,2019-03-06T04:15:00Z,29.1144,-90.1840,2.682,9.01,1111122 
LUMCON,ioos:station:LUMCON:wisl1:1,2019-03-06T04:30:00Z,29.1144,-90.1840,2.696,9.09,1111122 
LUMCON,ioos:station:LUMCON:wisl1:1,2019-03-06T04:45:00Z,29.1144,-90.1840,2.705,9.26,1111122 
LUMCON,ioos:station:LUMCON:wisl1:1,2019-03-06T05:00:00Z,29.1144,-90.1840,2.701,9.15,1111122 
LUMCON,ioos:station:LUMCON:wisl1:1,2019-03-06T05:15:00Z,29.1144,-90.1840,2.7,9.02,1111122 
LUMCON,ioos:station:LUMCON:wisl1:1,2019-03-06T05:30:00Z,29.1144,-90.1840,2.7,8.86,1111122 
LUMCON,ioos:station:LUMCON:wisl1:1,2019-03-06T05:45:00Z,29.1144,-90.1840,2.686,8.97,1111122 
LUMCON,ioos:station:LUMCON:wisl1:1,2019-03-06T06:00:00Z,29.1144,-90.1840,2.681,9.15,1111122 
LUMCON,ioos:station:LUMCON:wisl1:1,2019-03-06T06:15:00Z,29.1144,-90.1840,2.675,8.88,1111122 
LUMCON,ioos:station:LUMCON:wisl1:1,2019-03-06T06:30:00Z,29.1144,-90.1840,2.658,8.98,1111122 
LUMCON,ioos:station:LUMCON:wisl1:1,2019-03-06T06:45:00Z,29.1144,-90.1840,2.653,8.97,1111122 
LUMCON,ioos:station:LUMCON:wisl1:1,2019-03-06T07:00:00Z,29.1144,-90.1840,2.635,8.94,1111122 
LUMCON,ioos:station:LUMCON:wisl1:1,2019-03-06T07:15:00Z,29.1144,-90.1840,2.66,9.06,1111122 
LUMCON,ioos:station:LUMCON:wisl1:1,2019-03-06T07:30:00Z,29.1144,-90.1840,2.651,9.17,1111122 
LUMCON,ioos:station:LUMCON:wisl1:1,2019-03-06T07:45:00Z,29.1144,-90.1840,2.631,8.91,1111122 
LUMCON,ioos:station:LUMCON:wisl1:1,2019-03-06T08:00:00Z,29.1144,-90.1840,2.608,8.9,1111122 
LUMCON,ioos:station:LUMCON:wisl1:1,2019-03-06T08:15:00Z,29.1144,-90.1840,2.597,9.02,1111122 
LUMCON,ioos:station:LUMCON:wisl1:1,2019-03-06T08:30:00Z,29.1144,-90.1840,2.599,9.11,1111122 
LUMCON,ioos:station:LUMCON:wisl1:1,2019-03-06T08:45:00Z,29.1144,-90.1840,2.59,9.23,1111122 
LUMCON,ioos:station:LUMCON:wisl1:1,2019-03-06T09:00:00Z,29.1144,-90.1840,2.584,9.26,1111122 
LUMCON,ioos:station:LUMCON:wisl1:1,2019-03-06T09:15:00Z,29.1144,-90.1840,2.568,9.35,1111122 
LUMCON,ioos:station:LUMCON:wisl1:1,2019-03-06T09:30:00Z,29.1144,-90.1840,2.564,9.43,1111122 
LUMCON,ioos:station:LUMCON:wisl1:1,2019-03-06T09:45:00Z,29.1144,-90.1840,2.566,9.4,1111122 
LUMCON,ioos:station:LUMCON:wisl1:1,2019-03-06T10:00:00Z,29.1144,-90.1840,2.565,9.46,1111122 
LUMCON,ioos:station:LUMCON:wisl1:1,2019-03-06T10:15:00Z,29.1144,-90.1840,2.564,9.51,1111122 
LUMCON,ioos:station:LUMCON:wisl1:1,2019-03-06T10:30:00Z,29.1144,-90.1840,2.558,9.52,1111122 
LUMCON,ioos:station:LUMCON:wisl1:1,2019-03-06T10:45:00Z,29.1144,-90.1840,2.549,9.56,1111122 
LUMCON,ioos:station:LUMCON:wisl1:1,2019-03-06T11:00:00Z,29.1144,-90.1840,2.545,9.48,1111122 
LUMCON,ioos:station:LUMCON:wisl1:1,2019-03-06T11:15:00Z,29.1144,-90.1840,2.551,9.48,1111122 
LUMCON,ioos:station:LUMCON:wisl1:1,2019-03-06T11:30:00Z,29.1144,-90.1840,2.541,9.47,1111122 
LUMCON,ioos:station:LUMCON:wisl1:1,2019-03-06T11:45:00Z,29.1144,-90.1840,2.55,9.52,1111122 
LUMCON,ioos:station:LUMCON:wisl1:1,2019-03-06T12:00:00Z,29.1144,-90.1840,2.553,9.57,1111122 
LUMCON,ioos:station:LUMCON:wisl1:1,2019-03-06T12:15:00Z,29.1144,-90.1840,2.549,9.61,1111122 
LUMCON,ioos:station:LUMCON:wisl1:1,2019-03-06T12:30:00Z,29.1144,-90.1840,2.561,9.65,1111122 
LUMCON,ioos:station:LUMCON:wisl1:1,2019-03-06T12:45:00Z,29.1144,-90.1840,2.572,9.69,1111122 
LUMCON,ioos:station:LUMCON:wisl1:1,2019-03-06T13:00:00Z,29.1144,-90.1840,2.566,9.73,1111122 
LUMCON,ioos:station:LUMCON:wisl1:1,2019-03-06T13:15:00Z,29.1144,-90.1840,2.57,9.81,1111122 
LUMCON,ioos:station:LUMCON:wisl1:1,2019-03-06T13:30:00Z,29.1144,-90.1840,2.577,9.87,1111122 
LUMCON,ioos:station:LUMCON:wisl1:1,2019-03-06T13:45:00Z,29.1144,-90.1840,2.575,9.91,1111122 
LUMCON,ioos:station:LUMCON:wisl1:1,2019-03-06T14:00:00Z,29.1144,-90.1840,2.58,9.93,1111122 
LUMCON,ioos:station:LUMCON:wisl1:1,2019-03-06T14:15:00Z,29.1144,-90.1840,2.583,9.99,1111122 
LUMCON,ioos:station:LUMCON:wisl1:1,2019-03-06T14:30:00Z,29.1144,-90.1840,2.591,10.04,1111122 
LUMCON,ioos:station:LUMCON:wisl1:1,2019-03-06T14:45:00Z,29.1144,-90.1840,2.6,10.09,1111122 
LUMCON,ioos:station:LUMCON:wisl1:1,2019-03-06T15:00:00Z,29.1144,-90.1840,2.604,10.11,1111122 
LUMCON,ioos:station:LUMCON:wisl1:1,2019-03-06T15:15:00Z,29.1144,-90.1840,2.61,10.15,1111122 
LUMCON,ioos:station:LUMCON:wisl1:1,2019-03-06T15:30:00Z,29.1144,-90.1840,2.622,10.21,1111122 
LUMCON,ioos:station:LUMCON:wisl1:1,2019-03-06T15:45:00Z,29.1144,-90.1840,2.628,10.21,1111122 
LUMCON,ioos:station:LUMCON:wisl1:1,2019-03-06T16:00:00Z,29.1144,-90.1840,2.632,10.24,1111122 
LUMCON,ioos:station:LUMCON:wisl1:1,2019-03-06T16:15:00Z,29.1144,-90.1840,2.628,10.11,1111122 
LUMCON,ioos:station:LUMCON:wisl1:1,2019-03-06T16:30:00Z,29.1144,-90.1840,2.626,10.24,1111122 
LUMCON,ioos:station:LUMCON:wisl1:1,2019-03-06T16:45:00Z,29.1144,-90.1840,2.644,10.3,1111122 
LUMCON,ioos:station:LUMCON:wisl1:1,2019-03-06T17:00:00Z,29.1144,-90.1840,2.641,10.32,1111122 
LUMCON,ioos:station:LUMCON:wisl1:1,2019-03-06T17:15:00Z,29.1144,-90.1840,2.651,10.39,1111122 
LUMCON,ioos:station:LUMCON:wisl1:1,2019-03-06T17:30:00Z,29.1144,-90.1840,2.655,10.5,1111122 
LUMCON,ioos:station:LUMCON:wisl1:1,2019-03-06T17:45:00Z,29.1144,-90.1840,2.632,11.13,1111122 
LUMCON,ioos:station:LUMCON:wisl1:1,2019-03-06T18:00:00Z,29.1144,-90.1840,2.645,10.88,1111122 
LUMCON,ioos:station:LUMCON:wisl1:1,2019-03-06T18:15:00Z,29.1144,-90.1840,2.654,10.62,1111122 
LUMCON,ioos:station:LUMCON:wisl1:1,2019-03-06T18:30:00Z,29.1144,-90.1840,2.657,10.56,1111122 
LUMCON,ioos:station:LUMCON:wisl1:1,2019-03-06T18:45:00Z,29.1144,-90.1840,2.668,10.52,1111122 
LUMCON,ioos:station:LUMCON:wisl1:1,2019-03-06T19:00:00Z,29.1144,-90.1840,2.668,10.24,1111122 
LUMCON,ioos:station:LUMCON:wisl1:1,2019-03-06T19:15:00Z,29.1144,-90.1840,2.672,10.0,1111122 
LUMCON,ioos:station:LUMCON:wisl1:1,2019-03-06T19:30:00Z,29.1144,-90.1840,2.685,9.99,1111122 
LUMCON,ioos:station:LUMCON:wisl1:1,2019-03-06T19:45:00Z,29.1144,-90.1840,2.685,9.96,1111122 
LUMCON,ioos:station:LUMCON:wisl1:1,2019-03-06T20:00:00Z,29.1144,-90.1840,2.685,9.56,1111122 
LUMCON,ioos:station:LUMCON:wisl1:1,2019-03-06T20:15:00Z,29.1144,-90.1840,2.671,9.46,1111122 
LUMCON,ioos:station:LUMCON:wisl1:1,2019-03-06T20:30:00Z,29.1144,-90.1840,2.659,9.35,1111122 
LUMCON,ioos:station:LUMCON:wisl1:1,2019-03-06T20:45:00Z,29.1144,-90.1840,2.65,9.3,1111122 
LUMCON,ioos:station:LUMCON:wisl1:1,2019-03-06T21:00:00Z,29.1144,-90.1840,2.637,9.2,1111122 
LUMCON,ioos:station:LUMCON:wisl1:1,2019-03-06T21:15:00Z,29.1144,-90.1840,2.634,9.27,1111122 
LUMCON,ioos:station:LUMCON:wisl1:1,2019-03-06T21:30:00Z,29.1144,-90.1840,2.625,9.21,1111122 